Time,TemperatureF,DewpointF,PressureIn,WindDirection,WindDirectionDegrees,WindSpeedMPH,WindSpeedGustMPH,Humidity,HourlyPrecipIn,Conditions,Clouds,dailyrainin,SoftwareType,DateUTC
2013-06-03 00:02:00,63.9,56.5,29.76,North,0,5.5,5.6,77,0.00,,---,0.00,VWS V14.00,2013-06-03 05:02:00,
2013-06-03 00:07:00,63.7,56.3,29.76,North,0,5.2,5.2,77,0.00,,---,0.00,VWS V14.00,2013-06-03 05:07:00,
2013-06-03 00:13:00,63.5,56.2,29.76,North,0,5.5,5.5,77,0.00,,---,0.00,VWS V14.00,2013-06-03 05:13:00,
2013-06-03 00:18:00,63.5,56.5,29.76,North,0,7.2,7.2,78,0.00,,---,0.00,VWS V14.00,2013-06-03 05:18:00,
2013-06-03 00:24:00,63.3,56.3,29.76,NNW,338,5.2,5.2,78,0.00,,---,0.00,VWS V14.00,2013-06-03 05:24:00,
2013-06-03 00:29:00,63.3,56.3,29.76,NNW,338,5.2,5.8,78,0.00,,---,0.00,VWS V14.00,2013-06-03 05:29:00,
2013-06-03 00:35:00,63.1,56.5,29.76,North,0,4.4,4.4,79,0.00,,---,0.00,VWS V14.00,2013-06-03 05:35:00,
2013-06-03 00:41:00,63.0,56.3,29.76,NE,45,7.2,7.2,79,0.00,,---,0.00,VWS V14.00,2013-06-03 05:41:00,
2013-06-03 00:47:00,63.0,56.3,29.76,NNE,22,5.5,5.5,79,0.00,,---,0.00,VWS V14.00,2013-06-03 05:47:00,
2013-06-03 00:52:00,62.8,56.5,29.76,North,0,5.2,5.2,80,0.00,,---,0.00,VWS V14.00,2013-06-03 05:52:00,
2013-06-03 00:57:00,62.8,56.5,29.76,NNE,22,3.0,3.4,80,0.00,,---,0.00,VWS V14.00,2013-06-03 05:57:00,
2013-06-03 01:04:00,62.6,56.3,29.76,NNE,22,4.1,4.1,80,0.00,,---,0.00,VWS V14.00,2013-06-03 06:04:00,
2013-06-03 01:09:00,62.6,56.7,29.76,North,0,4.4,4.4,81,0.00,,---,0.00,VWS V14.00,2013-06-03 06:09:00,
2013-06-03 01:14:00,62.6,56.7,29.76,North,0,4.6,4.6,81,0.00,,---,0.00,VWS V14.00,2013-06-03 06:14:00,
2013-06-03 01:20:00,62.4,56.9,29.76,NNE,22,4.1,4.1,82,0.00,,---,0.00,VWS V14.00,2013-06-03 06:20:00,
2013-06-03 01:26:00,62.4,56.9,29.76,North,0,3.5,4.3,82,0.00,,---,0.00,VWS V14.00,2013-06-03 06:26:00,
2013-06-03 01:31:00,62.4,56.9,29.76,NNE,22,5.5,5.5,82,0.00,,---,0.00,VWS V14.00,2013-06-03 06:31:00,
2013-06-03 01:37:00,62.4,57.2,29.76,NNW,338,4.4,4.4,83,0.00,,---,0.00,VWS V14.00,2013-06-03 06:37:00,
2013-06-03 01:43:00,62.6,57.0,29.76,North,0,4.9,4.9,82,0.00,,---,0.00,VWS V14.00,2013-06-03 06:43:00,
2013-06-03 01:48:00,62.6,57.4,29.76,North,0,2.4,2.5,83,0.00,,---,0.00,VWS V14.00,2013-06-03 06:48:00,
2013-06-03 01:54:00,62.6,57.4,29.76,North,0,3.8,3.8,83,0.00,,---,0.00,VWS V14.00,2013-06-03 06:54:00,
2013-06-03 01:59:00,62.8,57.5,29.76,North,0,3.8,3.8,83,0.00,,---,0.00,VWS V14.00,2013-06-03 06:59:00,
2013-06-03 02:05:00,62.8,57.5,29.76,NNW,338,3.5,3.5,83,0.00,,---,0.00,VWS V14.00,2013-06-03 07:05:00,
2013-06-03 02:10:00,62.6,57.4,29.76,North,0,4.9,4.9,83,0.00,,---,0.00,VWS V14.00,2013-06-03 07:10:00,
2013-06-03 02:15:00,62.6,57.4,29.76,North,0,5.5,5.5,83,0.00,,---,0.00,VWS V14.00,2013-06-03 07:15:00,
2013-06-03 02:20:00,62.6,57.4,29.76,North,0,5.5,5.5,83,0.00,,---,0.00,VWS V14.00,2013-06-03 07:20:00,
2013-06-03 02:26:00,62.6,57.4,29.76,North,0,4.6,4.6,83,0.00,,---,0.00,VWS V14.00,2013-06-03 07:26:00,
2013-06-03 02:31:00,62.4,57.2,29.76,North,0,6.9,6.9,83,0.00,,---,0.00,VWS V14.00,2013-06-03 07:31:00,
2013-06-03 02:37:00,62.4,57.2,29.76,North,0,4.4,4.4,83,0.00,,---,0.00,VWS V14.00,2013-06-03 07:37:00,
2013-06-03 02:42:00,62.2,57.0,29.76,North,0,5.5,5.5,83,0.00,,---,0.00,VWS V14.00,2013-06-03 07:42:00,
2013-06-03 02:48:00,62.2,57.0,29.74,NNE,22,4.4,4.4,83,0.00,,---,0.00,VWS V14.00,2013-06-03 07:48:00,
2013-06-03 02:53:00,62.2,57.0,29.74,NE,45,5.2,5.2,83,0.00,,---,0.00,VWS V14.00,2013-06-03 07:53:00,
2013-06-03 02:58:00,62.4,57.2,29.74,NNW,338,4.1,4.1,83,0.00,,---,0.00,VWS V14.00,2013-06-03 07:58:00,
2013-06-03 03:04:00,62.4,57.2,29.76,North,0,2.7,3.8,83,0.00,,---,0.00,VWS V14.00,2013-06-03 08:04:00,
2013-06-03 03:09:00,62.4,57.2,29.76,North,0,5.8,5.8,83,0.00,,---,0.00,VWS V14.00,2013-06-03 08:09:00,
2013-06-03 03:15:00,62.2,57.0,29.76,North,0,4.1,4.1,83,0.00,,---,0.00,VWS V14.00,2013-06-03 08:15:00,
2013-06-03 03:20:00,62.2,57.0,29.76,NNW,338,3.8,4.0,83,0.00,,---,0.00,VWS V14.00,2013-06-03 08:20:00,
2013-06-03 03:26:00,62.2,57.0,29.76,NNE,22,4.4,4.4,83,0.00,,---,0.00,VWS V14.00,2013-06-03 08:26:00,
2013-06-03 03:32:00,62.1,56.8,29.76,North,0,4.4,4.4,83,0.00,,---,0.00,VWS V14.00,2013-06-03 08:32:00,
2013-06-03 03:37:00,62.1,56.8,29.76,NNW,338,4.1,4.1,83,0.00,,---,0.00,VWS V14.00,2013-06-03 08:37:00,
2013-06-03 03:43:00,62.1,56.8,29.76,North,0,4.6,4.6,83,0.00,,---,0.00,VWS V14.00,2013-06-03 08:43:00,
2013-06-03 03:48:00,62.2,57.0,29.76,North,0,5.2,5.2,83,0.00,,---,0.00,VWS V14.00,2013-06-03 08:48:00,
2013-06-03 03:54:00,62.2,57.3,29.76,North,0,4.1,4.1,84,0.00,,---,0.00,VWS V14.00,2013-06-03 08:54:00,
2013-06-03 03:59:00,62.2,57.3,29.76,NNW,338,4.1,4.1,84,0.00,,---,0.00,VWS V14.00,2013-06-03 08:59:00,
2013-06-03 04:05:00,62.2,57.3,29.76,NE,45,5.5,5.5,84,0.00,,---,0.00,VWS V14.00,2013-06-03 09:05:00,
2013-06-03 04:11:00,62.2,57.0,29.76,North,0,3.5,3.8,83,0.00,,---,0.00,VWS V14.00,2013-06-03 09:11:00,
2013-06-03 04:16:00,62.1,56.8,29.76,North,0,5.5,5.5,83,0.00,,---,0.00,VWS V14.00,2013-06-03 09:16:00,
2013-06-03 04:21:00,61.9,56.7,29.76,North,0,4.1,4.1,83,0.00,,---,0.00,VWS V14.00,2013-06-03 09:21:00,
2013-06-03 04:27:00,61.9,57.0,29.76,NNE,22,5.2,5.2,84,0.00,,---,0.00,VWS V14.00,2013-06-03 09:27:00,
2013-06-03 04:32:00,62.1,57.2,29.76,North,0,6.0,6.0,84,0.00,,---,0.00,VWS V14.00,2013-06-03 09:32:00,
2013-06-03 04:37:00,62.1,57.2,29.76,NNW,338,6.3,6.3,84,0.00,,---,0.00,VWS V14.00,2013-06-03 09:37:00,
2013-06-03 04:43:00,62.2,57.3,29.76,NNW,338,4.1,4.1,84,0.00,,---,0.00,VWS V14.00,2013-06-03 09:43:00,
2013-06-03 04:48:00,62.2,57.3,29.79,North,0,3.8,3.8,84,0.00,,---,0.00,VWS V14.00,2013-06-03 09:48:00,
2013-06-03 04:54:00,62.4,57.5,29.79,North,0,3.5,3.5,84,0.00,,---,0.00,VWS V14.00,2013-06-03 09:54:00,
2013-06-03 05:00:00,62.4,57.5,29.79,North,0,5.2,5.2,84,0.00,,---,0.00,VWS V14.00,2013-06-03 10:00:00,
2013-06-03 05:05:00,62.6,57.7,29.79,NW,315,5.5,5.5,84,0.00,,---,0.00,VWS V14.00,2013-06-03 10:05:00,
2013-06-03 05:10:00,62.6,57.4,29.79,North,0,4.1,4.1,83,0.00,,---,0.00,VWS V14.00,2013-06-03 10:10:00,
2013-06-03 05:15:00,62.6,57.4,29.79,North,0,4.6,4.6,83,0.00,,---,0.00,VWS V14.00,2013-06-03 10:15:00,
2013-06-03 05:21:00,62.6,57.4,29.79,NNW,338,4.4,4.4,83,0.00,,---,0.00,VWS V14.00,2013-06-03 10:21:00,
2013-06-03 05:26:00,62.6,57.4,29.79,North,0,2.7,2.7,83,0.00,,---,0.00,VWS V14.00,2013-06-03 10:26:00,
2013-06-03 05:32:00,62.6,57.4,29.79,North,0,4.9,4.9,83,0.00,,---,0.00,VWS V14.00,2013-06-03 10:32:00,
2013-06-03 05:37:00,62.6,57.4,29.79,NW,315,4.9,6.3,83,0.00,,---,0.00,VWS V14.00,2013-06-03 10:37:00,
2013-06-03 05:43:00,62.6,57.4,29.79,NNW,338,5.8,5.8,83,0.00,,---,0.00,VWS V14.00,2013-06-03 10:43:00,
2013-06-03 05:49:00,62.6,57.4,29.79,NNE,22,4.4,4.4,83,0.00,,---,0.00,VWS V14.00,2013-06-03 10:49:00,
2013-06-03 05:54:00,62.6,57.0,29.79,North,0,4.1,4.1,82,0.00,,---,0.00,VWS V14.00,2013-06-03 10:54:00,
2013-06-03 06:00:00,62.6,57.0,29.79,North,0,5.2,5.2,82,0.00,,---,0.00,VWS V14.00,2013-06-03 11:00:00,
2013-06-03 06:06:00,62.8,57.2,29.79,NNW,338,4.4,4.4,82,0.00,,---,0.00,VWS V14.00,2013-06-03 11:06:00,
2013-06-03 06:11:00,62.8,57.2,29.79,NNW,338,4.6,4.6,82,0.00,,---,0.00,VWS V14.00,2013-06-03 11:11:00,
2013-06-03 06:17:00,62.8,57.2,29.79,NNW,338,4.9,4.9,82,0.00,,---,0.00,VWS V14.00,2013-06-03 11:17:00,
2013-06-03 06:22:00,63.0,57.4,29.79,NNW,338,4.4,4.4,82,0.00,,---,0.00,VWS V14.00,2013-06-03 11:22:00,
2013-06-03 06:28:00,63.0,57.4,29.79,North,0,4.1,4.1,82,0.00,,---,0.00,VWS V14.00,2013-06-03 11:28:00,
2013-06-03 06:34:00,63.0,57.4,29.82,North,0,2.4,2.4,82,0.00,,---,0.00,VWS V14.00,2013-06-03 11:34:00,
2013-06-03 06:40:00,63.0,57.4,29.82,North,0,7.2,7.2,82,0.00,,---,0.00,VWS V14.00,2013-06-03 11:40:00,
2013-06-03 06:45:00,63.0,57.4,29.82,North,0,5.5,5.5,82,0.00,,---,0.00,VWS V14.00,2013-06-03 11:45:00,
2013-06-03 06:50:00,63.1,57.6,29.82,NNW,338,5.2,5.2,82,0.00,,---,0.00,VWS V14.00,2013-06-03 11:50:00,
2013-06-03 06:55:00,63.1,57.6,29.82,NE,45,4.4,4.7,82,0.00,,---,0.00,VWS V14.00,2013-06-03 11:55:00,
2013-06-03 07:01:00,63.1,57.6,29.82,NNE,22,4.6,4.6,82,0.00,,---,0.00,VWS V14.00,2013-06-03 12:01:00,
2013-06-03 07:06:00,63.3,57.7,29.82,North,0,3.8,3.8,82,0.00,,---,0.00,VWS V14.00,2013-06-03 12:06:00,
2013-06-03 07:12:00,63.5,57.9,29.82,NNW,338,4.6,4.6,82,0.00,,---,0.00,VWS V14.00,2013-06-03 12:12:00,
2013-06-03 07:17:00,63.5,57.9,29.82,North,0,4.6,4.6,82,0.00,,---,0.00,VWS V14.00,2013-06-03 12:17:00,
2013-06-03 07:22:00,63.7,57.8,29.82,North,0,4.4,4.4,81,0.00,,---,0.00,VWS V14.00,2013-06-03 12:22:00,
2013-06-03 07:28:00,64.0,58.1,29.82,NNE,22,3.8,4.0,81,0.00,,---,0.00,VWS V14.00,2013-06-03 12:28:00,
2013-06-03 07:33:00,64.2,58.3,29.82,North,0,4.1,4.1,81,0.00,,---,0.00,VWS V14.00,2013-06-03 12:33:00,
2013-06-03 07:38:00,64.2,57.9,29.82,NNW,338,6.3,6.3,80,0.00,,---,0.00,VWS V14.00,2013-06-03 12:38:00,
2013-06-03 07:43:00,64.6,58.3,29.82,NNE,22,6.0,6.0,80,0.00,,---,0.00,VWS V14.00,2013-06-03 12:43:00,
2013-06-03 07:49:00,64.8,58.1,29.85,NE,45,4.4,4.4,79,0.00,,---,0.00,VWS V14.00,2013-06-03 12:49:00,
2013-06-03 07:54:00,64.8,57.8,29.85,North,0,5.2,5.6,78,0.00,,---,0.00,VWS V14.00,2013-06-03 12:54:00,
2013-06-03 08:00:00,65.1,57.7,29.85,NW,315,3.0,3.0,77,0.00,,---,0.00,VWS V14.00,2013-06-03 13:00:00,
2013-06-03 08:06:00,65.3,57.9,29.82,West,270,4.1,4.1,77,0.00,,---,0.00,VWS V14.00,2013-06-03 13:06:00,
2013-06-03 08:12:00,65.5,57.7,29.82,NNW,338,4.1,4.1,76,0.00,,---,0.00,VWS V14.00,2013-06-03 13:12:00,
2013-06-03 08:17:00,65.7,57.5,29.82,NW,315,5.2,5.2,75,0.00,,---,0.00,VWS V14.00,2013-06-03 13:17:00,
2013-06-03 08:22:00,66.0,57.9,29.82,NW,315,3.8,3.8,75,0.00,,---,0.00,VWS V14.00,2013-06-03 13:22:00,
2013-06-03 08:27:00,66.4,57.8,29.82,NW,315,2.7,2.7,74,0.00,,---,0.00,VWS V14.00,2013-06-03 13:27:00,
2013-06-03 08:32:00,66.4,57.1,29.82,NW,315,6.6,6.6,72,0.00,,---,0.00,VWS V14.00,2013-06-03 13:32:00,
2013-06-03 08:38:00,66.6,57.3,29.82,NNE,22,8.0,8.0,72,0.00,,---,0.00,VWS V14.00,2013-06-03 13:38:00,
2013-06-03 08:44:00,66.9,57.6,29.82,North,0,5.2,5.2,72,0.00,,---,0.00,VWS V14.00,2013-06-03 13:44:00,
2013-06-03 08:49:00,67.3,57.6,29.82,North,0,2.4,2.4,71,0.00,,---,0.00,VWS V14.00,2013-06-03 13:49:00,
2013-06-03 08:55:00,67.8,57.7,29.82,NNW,338,5.8,5.8,70,0.00,,---,0.00,VWS V14.00,2013-06-03 13:55:00,
2013-06-03 09:01:00,67.6,57.1,29.82,North,0,3.5,5.8,69,0.00,,---,0.00,VWS V14.00,2013-06-03 14:01:00,
2013-06-03 09:07:00,67.5,57.3,29.82,NNW,338,4.9,4.9,70,0.00,,---,0.00,VWS V14.00,2013-06-03 14:07:00,
2013-06-03 09:12:00,67.5,57.3,29.82,East,90,2.4,2.9,70,0.00,,---,0.00,VWS V14.00,2013-06-03 14:12:00,
2013-06-03 09:18:00,67.8,58.1,29.82,North,0,1.0,1.6,71,0.00,,---,0.00,VWS V14.00,2013-06-03 14:18:00,
2013-06-03 09:23:00,68.2,57.6,29.82,NW,315,3.0,3.0,69,0.00,,---,0.00,VWS V14.00,2013-06-03 14:23:00,
2013-06-03 09:28:00,68.4,57.8,29.82,SSW,202,3.8,3.8,69,0.00,,---,0.00,VWS V14.00,2013-06-03 14:28:00,
2013-06-03 09:34:00,68.4,57.4,29.82,NW,315,4.6,4.6,68,0.00,,---,0.00,VWS V14.00,2013-06-03 14:34:00,
2013-06-03 09:40:00,68.4,57.4,29.82,NNW,338,3.0,3.0,68,0.00,,---,0.00,VWS V14.00,2013-06-03 14:40:00,
2013-06-03 09:45:00,68.5,58.0,29.82,SSE,158,3.5,3.5,69,0.00,,---,0.00,VWS V14.00,2013-06-03 14:45:00,
2013-06-03 09:50:00,68.5,57.2,29.82,NNW,338,4.9,4.9,67,0.00,,---,0.00,VWS V14.00,2013-06-03 14:50:00,
2013-06-03 09:56:00,68.7,57.7,29.82,North,0,4.4,4.4,68,0.00,,---,0.00,VWS V14.00,2013-06-03 14:56:00,
2013-06-03 10:01:00,68.9,57.5,29.82,NW,315,4.1,4.3,67,0.00,,---,0.00,VWS V14.00,2013-06-03 15:01:00,
2013-06-03 10:07:00,69.4,58.4,29.82,South,180,2.1,2.5,68,0.00,,---,0.00,VWS V14.00,2013-06-03 15:07:00,
2013-06-03 10:12:00,69.6,58.2,29.82,East,90,8.3,8.3,67,0.00,,---,0.00,VWS V14.00,2013-06-03 15:12:00,
2013-06-03 10:17:00,70.0,57.7,29.82,NW,315,3.8,3.8,65,0.00,,---,0.00,VWS V14.00,2013-06-03 15:17:00,
2013-06-03 10:23:00,70.0,57.7,29.82,West,270,4.4,4.4,65,0.00,,---,0.00,VWS V14.00,2013-06-03 15:23:00,
2013-06-03 10:29:00,70.2,57.0,29.82,NNW,338,2.7,3.8,63,0.00,,---,0.00,VWS V14.00,2013-06-03 15:29:00,
2013-06-03 10:34:00,70.5,58.2,29.82,NW,315,3.8,3.8,65,0.00,,---,0.00,VWS V14.00,2013-06-03 15:34:00,
2013-06-03 10:39:00,71.1,58.7,29.82,NE,45,3.5,3.5,65,0.00,,---,0.00,VWS V14.00,2013-06-03 15:39:00,
2013-06-03 10:45:00,71.6,58.3,29.82,NNW,338,4.1,4.1,63,0.00,,---,0.00,VWS V14.00,2013-06-03 15:45:00,
2013-06-03 10:51:00,71.4,57.7,29.82,ENE,68,3.8,3.8,62,0.00,,---,0.00,VWS V14.00,2013-06-03 15:51:00,
2013-06-03 10:56:00,72.1,58.9,29.82,NW,315,4.6,4.6,63,0.00,,---,0.00,VWS V14.00,2013-06-03 15:56:00,
2013-06-03 11:02:00,72.5,58.3,29.82,South,180,4.1,4.1,61,0.00,,---,0.00,VWS V14.00,2013-06-03 16:02:00,
2013-06-03 11:07:00,72.1,56.6,29.82,WNW,292,2.4,2.9,58,0.00,,---,0.00,VWS V14.00,2013-06-03 16:07:00,
2013-06-03 11:13:00,72.0,56.4,29.82,NNE,22,2.4,3.6,58,0.00,,---,0.00,VWS V14.00,2013-06-03 16:13:00,
2013-06-03 11:18:00,72.0,56.9,29.82,WNW,292,3.8,3.8,59,0.00,,---,0.00,VWS V14.00,2013-06-03 16:18:00,
2013-06-03 11:23:00,72.9,58.2,29.82,SW,225,3.5,3.5,60,0.00,,---,0.00,VWS V14.00,2013-06-03 16:23:00,
2013-06-03 11:28:00,72.7,57.1,29.82,East,90,2.4,2.4,58,0.00,,---,0.00,VWS V14.00,2013-06-03 16:28:00,
2013-06-03 11:33:00,72.9,56.3,29.79,East,90,4.4,4.4,56,0.00,,---,0.00,VWS V14.00,2013-06-03 16:33:00,
2013-06-03 11:39:00,73.8,58.1,29.79,WSW,248,3.8,3.8,58,0.00,,---,0.00,VWS V14.00,2013-06-03 16:39:00,
2013-06-03 11:44:00,73.4,56.3,29.79,ENE,68,1.0,2.7,55,0.00,,---,0.00,VWS V14.00,2013-06-03 16:44:00,
2013-06-03 11:50:00,73.9,56.8,29.82,NW,315,2.7,3.1,55,0.00,,---,0.00,VWS V14.00,2013-06-03 16:50:00,
2013-06-03 11:55:00,74.7,58.9,29.82,North,0,2.7,2.7,58,0.00,,---,0.00,VWS V14.00,2013-06-03 16:55:00,
2013-06-03 12:02:00,75.4,58.6,29.82,SE,135,3.5,3.5,56,0.00,,---,0.00,VWS V14.00,2013-06-03 17:02:00,
2013-06-03 12:07:00,74.7,55.9,29.82,WSW,248,3.0,3.6,52,0.00,,---,0.00,VWS V14.00,2013-06-03 17:07:00,
2013-06-03 12:13:00,73.9,55.2,29.82,NW,315,2.4,2.4,52,0.00,,---,0.00,VWS V14.00,2013-06-03 17:13:00,
2013-06-03 12:18:00,74.5,56.2,29.82,NW,315,4.1,4.1,53,0.00,,---,0.00,VWS V14.00,2013-06-03 17:18:00,
2013-06-03 12:23:00,74.1,55.4,29.82,North,0,4.4,4.4,52,0.00,,---,0.00,VWS V14.00,2013-06-03 17:23:00,
2013-06-03 12:29:00,73.9,56.3,29.82,SW,225,4.4,4.4,54,0.00,,---,0.00,VWS V14.00,2013-06-03 17:29:00,
2013-06-03 12:35:00,73.6,55.4,29.79,NW,315,2.7,2.7,53,0.00,,---,0.00,VWS V14.00,2013-06-03 17:35:00,
2013-06-03 12:40:00,74.8,57.6,29.79,ESE,112,6.3,6.3,55,0.00,,---,0.00,VWS V14.00,2013-06-03 17:40:00,
2013-06-03 12:47:00,75.4,57.1,29.79,North,0,4.1,4.1,53,0.00,,---,0.00,VWS V14.00,2013-06-03 17:47:00,
2013-06-03 12:53:00,76.1,57.8,29.79,SE,135,3.5,3.6,53,0.00,,---,0.00,VWS V14.00,2013-06-03 17:53:00,
2013-06-03 12:58:00,76.5,57.0,29.79,SSE,158,5.2,5.2,51,0.00,,---,0.00,VWS V14.00,2013-06-03 17:58:00,
2013-06-03 13:04:00,75.7,55.2,29.79,NNW,338,4.6,4.6,49,0.00,,---,0.00,VWS V14.00,2013-06-03 18:04:00,
2013-06-03 13:10:00,76.5,55.9,29.79,North,0,5.2,5.2,49,0.00,,---,0.00,VWS V14.00,2013-06-03 18:10:00,
2013-06-03 13:15:00,75.7,53.5,29.79,North,0,4.6,4.6,46,0.00,,---,0.00,VWS V14.00,2013-06-03 18:15:00,
2013-06-03 13:22:00,75.7,54.7,29.79,NW,315,3.0,3.0,48,0.00,,---,0.00,VWS V14.00,2013-06-03 18:22:00,
2013-06-03 13:27:00,76.5,55.3,29.79,East,90,6.3,6.3,48,0.00,,---,0.00,VWS V14.00,2013-06-03 18:27:00,
2013-06-03 13:32:00,76.8,54.5,29.79,North,0,2.1,2.1,46,0.00,,---,0.00,VWS V14.00,2013-06-03 18:32:00,
2013-06-03 13:37:00,76.8,54.5,29.79,East,90,4.4,4.4,46,0.00,,---,0.00,VWS V14.00,2013-06-03 18:37:00,
2013-06-03 13:42:00,78.1,56.8,29.79,ESE,112,5.2,5.2,48,0.00,,---,0.00,VWS V14.00,2013-06-03 18:42:00,
2013-06-03 13:48:00,77.5,55.2,29.79,West,270,3.5,3.5,46,0.00,,---,0.00,VWS V14.00,2013-06-03 18:48:00,
2013-06-03 13:53:00,77.2,54.8,29.79,SW,225,4.4,4.4,46,0.00,,---,0.00,VWS V14.00,2013-06-03 18:53:00,
2013-06-03 13:58:00,76.8,53.9,29.79,ESE,112,4.4,4.4,45,0.00,,---,0.00,VWS V14.00,2013-06-03 18:58:00,
2013-06-03 14:03:00,77.0,55.2,29.79,North,0,1.0,3.4,47,0.00,,---,0.00,VWS V14.00,2013-06-03 19:03:00,
2013-06-03 14:08:00,77.4,55.0,29.79,SE,135,5.8,6.5,46,0.00,,---,0.00,VWS V14.00,2013-06-03 19:08:00,
2013-06-03 14:14:00,78.4,56.0,29.79,NNW,338,4.1,4.1,46,0.00,,---,0.00,VWS V14.00,2013-06-03 19:14:00,
2013-06-03 14:20:00,78.1,54.4,29.76,North,0,2.4,2.5,44,0.00,,---,0.00,VWS V14.00,2013-06-03 19:20:00,
2013-06-03 14:25:00,77.4,53.8,29.76,NW,315,2.1,2.1,44,0.00,,---,0.00,VWS V14.00,2013-06-03 19:25:00,
2013-06-03 14:30:00,77.2,54.2,29.76,NNW,338,5.2,5.2,45,0.00,,---,0.00,VWS V14.00,2013-06-03 19:30:00,
2013-06-03 14:35:00,77.0,54.1,29.76,North,0,5.8,5.8,45,0.00,,---,0.00,VWS V14.00,2013-06-03 19:35:00,
2013-06-03 14:41:00,77.0,54.1,29.76,South,180,2.4,2.7,45,0.00,,---,0.00,VWS V14.00,2013-06-03 19:41:00,
2013-06-03 14:47:00,77.2,53.6,29.79,West,270,2.4,7.2,44,0.00,,---,0.00,VWS V14.00,2013-06-03 19:47:00,
2013-06-03 14:52:00,77.5,53.9,29.79,NE,45,4.6,4.6,44,0.00,,---,0.00,VWS V14.00,2013-06-03 19:52:00,
2013-06-03 14:57:00,77.5,53.9,29.79,NW,315,4.6,4.6,44,0.00,,---,0.00,VWS V14.00,2013-06-03 19:57:00,
2013-06-03 15:03:00,77.9,54.3,29.76,North,0,4.6,4.6,44,0.00,,---,0.00,VWS V14.00,2013-06-03 20:03:00,
2013-06-03 15:08:00,77.9,53.0,29.76,NW,315,6.0,6.0,42,0.00,,---,0.00,VWS V14.00,2013-06-03 20:08:00,
2013-06-03 15:14:00,78.1,53.8,29.76,North,0,5.5,5.5,43,0.00,,---,0.00,VWS V14.00,2013-06-03 20:14:00,
2013-06-03 15:20:00,77.9,53.6,29.76,NW,315,3.5,4.0,43,0.00,,---,0.00,VWS V14.00,2013-06-03 20:20:00,
2013-06-03 15:26:00,77.0,53.4,29.76,NW,315,3.8,4.0,44,0.00,,---,0.00,VWS V14.00,2013-06-03 20:26:00,
2013-06-03 15:31:00,76.6,53.1,29.76,WNW,292,2.4,2.4,44,0.00,,---,0.00,VWS V14.00,2013-06-03 20:31:00,
2013-06-03 15:37:00,76.8,53.9,29.76,North,0,2.7,3.1,45,0.00,,---,0.00,VWS V14.00,2013-06-03 20:37:00,
2013-06-03 15:42:00,77.2,53.6,29.76,SE,135,5.5,5.5,44,0.00,,---,0.00,VWS V14.00,2013-06-03 20:42:00,
2013-06-03 15:48:00,77.2,53.0,29.76,SSE,158,2.7,2.7,43,0.00,,---,0.00,VWS V14.00,2013-06-03 20:48:00,
2013-06-03 15:53:00,76.6,52.5,29.76,North,0,2.7,2.7,43,0.00,,---,0.00,VWS V14.00,2013-06-03 20:53:00,
2013-06-03 15:59:00,76.5,53.0,29.76,NW,315,2.4,3.4,44,0.00,,---,0.00,VWS V14.00,2013-06-03 20:59:00,
2013-06-03 16:05:00,76.1,52.6,29.76,North,0,4.9,4.9,44,0.00,,---,0.00,VWS V14.00,2013-06-03 21:05:00,
2013-06-03 16:10:00,75.9,52.5,29.76,NNW,338,4.1,4.1,44,0.00,,---,0.00,VWS V14.00,2013-06-03 21:10:00,
2013-06-03 16:17:00,75.9,52.5,29.76,NNW,338,4.9,4.9,44,0.00,,---,0.00,VWS V14.00,2013-06-03 21:17:00,
2013-06-03 16:22:00,76.1,52.6,29.76,ESE,112,3.0,3.0,44,0.00,,---,0.00,VWS V14.00,2013-06-03 21:22:00,
2013-06-03 16:27:00,76.5,52.3,29.76,NW,315,3.0,3.0,43,0.00,,---,0.00,VWS V14.00,2013-06-03 21:27:00,
2013-06-03 16:33:00,76.8,53.3,29.76,North,0,4.1,4.1,44,0.00,,---,0.00,VWS V14.00,2013-06-03 21:33:00,
2013-06-03 16:38:00,76.6,52.5,29.76,SW,225,2.7,3.1,43,0.00,,---,0.00,VWS V14.00,2013-06-03 21:38:00,
2013-06-03 16:44:00,76.1,51.4,29.76,North,0,5.8,5.8,42,0.00,,---,0.00,VWS V14.00,2013-06-03 21:44:00,
2013-06-03 16:50:00,75.9,51.8,29.76,North,0,4.6,4.6,43,0.00,,---,0.00,VWS V14.00,2013-06-03 21:50:00,
2013-06-03 16:55:00,76.1,51.4,29.76,ESE,112,2.1,2.7,42,0.00,,---,0.00,VWS V14.00,2013-06-03 21:55:00,
2013-06-03 17:01:00,76.5,52.3,29.76,East,90,2.7,2.7,43,0.00,,---,0.00,VWS V14.00,2013-06-03 22:01:00,
2013-06-03 17:06:00,77.0,52.2,29.76,NW,315,3.5,3.5,42,0.00,,---,0.00,VWS V14.00,2013-06-03 22:06:00,
2013-06-03 17:12:00,76.5,51.7,29.76,WNW,292,3.0,3.0,42,0.00,,---,0.00,VWS V14.00,2013-06-03 22:12:00,
2013-06-03 17:17:00,76.1,52.0,29.76,SSE,158,4.1,4.1,43,0.00,,---,0.00,VWS V14.00,2013-06-03 22:17:00,
2013-06-03 17:23:00,75.9,51.2,29.76,NNW,338,2.4,2.4,42,0.00,,---,0.00,VWS V14.00,2013-06-03 22:23:00,
2013-06-03 17:28:00,75.7,51.7,29.76,South,180,3.5,3.5,43,0.00,,---,0.00,VWS V14.00,2013-06-03 22:28:00,
2013-06-03 17:33:00,75.7,51.7,29.76,ESE,112,4.9,4.9,43,0.00,,---,0.00,VWS V14.00,2013-06-03 22:33:00,
2013-06-03 17:39:00,76.1,52.6,29.76,NNW,338,2.4,2.4,44,0.00,,---,0.00,VWS V14.00,2013-06-03 22:39:00,
2013-06-03 17:44:00,76.6,51.8,29.76,NW,315,3.0,3.0,42,0.00,,---,0.00,VWS V14.00,2013-06-03 22:44:00,
2013-06-03 17:49:00,76.8,52.0,29.76,NW,315,2.4,2.4,42,0.00,,---,0.00,VWS V14.00,2013-06-03 22:49:00,
2013-06-03 17:54:00,76.3,51.5,29.76,NNW,338,2.7,2.7,42,0.00,,---,0.00,VWS V14.00,2013-06-03 22:54:00,
2013-06-03 18:00:00,75.9,51.2,29.76,ESE,112,4.1,4.1,42,0.00,,---,0.00,VWS V14.00,2013-06-03 23:00:00,
2013-06-03 18:05:00,76.1,52.0,29.74,SE,135,7.2,7.2,43,0.00,,---,0.00,VWS V14.00,2013-06-03 23:05:00,
2013-06-03 18:12:00,76.3,51.5,29.74,East,90,2.7,2.7,42,0.00,,---,0.00,VWS V14.00,2013-06-03 23:12:00,
2013-06-03 18:18:00,75.7,51.7,29.74,NNW,338,3.5,3.5,43,0.00,,---,0.00,VWS V14.00,2013-06-03 23:18:00,
2013-06-03 18:23:00,74.8,50.9,29.74,NW,315,3.0,3.0,43,0.00,,---,0.00,VWS V14.00,2013-06-03 23:23:00,
2013-06-03 18:29:00,74.5,50.5,29.74,NW,315,3.0,3.0,43,0.00,,---,0.00,VWS V14.00,2013-06-03 23:29:00,
2013-06-03 18:34:00,74.5,51.2,29.74,NNW,338,3.5,3.5,44,0.00,,---,0.00,VWS V14.00,2013-06-03 23:34:00,
2013-06-03 18:41:00,74.8,51.5,29.74,North,0,4.4,4.4,44,0.00,,---,0.00,VWS V14.00,2013-06-03 23:41:00,
2013-06-03 18:46:00,75.2,51.8,29.74,North,0,4.4,4.4,44,0.00,,---,0.00,VWS V14.00,2013-06-03 23:46:00,
2013-06-03 18:52:00,75.2,51.8,29.74,NW,315,1.0,1.1,44,0.00,,---,0.00,VWS V14.00,2013-06-03 23:52:00,
2013-06-03 18:57:00,75.2,51.8,29.74,ESE,112,2.4,2.4,44,0.00,,---,0.00,VWS V14.00,2013-06-03 23:57:00,
2013-06-03 19:02:00,75.0,51.0,29.74,East,90,5.2,5.2,43,0.00,,---,0.00,VWS V14.00,2013-06-04 00:02:00,
2013-06-03 19:08:00,75.0,51.7,29.74,North,0,3.5,3.5,44,0.00,,---,0.00,VWS V14.00,2013-06-04 00:08:00,
2013-06-03 19:14:00,74.8,51.5,29.74,NNE,22,5.2,5.2,44,0.00,,---,0.00,VWS V14.00,2013-06-04 00:14:00,
2013-06-03 19:19:00,74.5,51.2,29.74,West,270,2.4,2.4,44,0.00,,---,0.00,VWS V14.00,2013-06-04 00:19:00,
2013-06-03 19:25:00,74.3,51.0,29.74,NW,315,2.4,2.4,44,0.00,,---,0.00,VWS V14.00,2013-06-04 00:25:00,
2013-06-03 19:30:00,73.9,51.3,29.74,NW,315,3.5,3.5,45,0.00,,---,0.00,VWS V14.00,2013-06-04 00:30:00,
2013-06-03 19:36:00,73.8,51.7,29.74,North,0,2.7,2.7,46,0.00,,---,0.00,VWS V14.00,2013-06-04 00:36:00,
2013-06-03 19:42:00,73.6,51.5,29.74,North,0,3.0,3.0,46,0.00,,---,0.00,VWS V14.00,2013-06-04 00:42:00,
2013-06-03 19:47:00,73.2,51.8,29.76,North,0,4.1,4.1,47,0.00,,---,0.00,VWS V14.00,2013-06-04 00:47:00,
2013-06-03 19:53:00,72.7,51.3,29.76,North,0,1.0,0.0,47,0.00,,---,0.00,VWS V14.00,2013-06-04 00:53:00,
2013-06-03 19:59:00,72.1,51.4,29.76,NNW,338,1.0,1.1,48,0.00,,---,0.00,VWS V14.00,2013-06-04 00:59:00,
2013-06-03 20:04:00,71.8,51.6,29.74,NNW,338,2.7,2.7,49,0.00,,---,0.00,VWS V14.00,2013-06-04 01:04:00,
2013-06-03 20:10:00,71.2,51.7,29.74,NNW,338,3.0,3.0,50,0.00,,---,0.00,VWS V14.00,2013-06-04 01:10:00,
2013-06-03 20:15:00,70.9,51.9,29.74,North,0,3.5,3.5,51,0.00,,---,0.00,VWS V14.00,2013-06-04 01:15:00,
2013-06-03 20:21:00,70.5,52.1,29.76,North,0,3.0,3.0,52,0.00,,---,0.00,VWS V14.00,2013-06-04 01:21:00,
2013-06-03 20:27:00,70.2,52.2,29.76,North,0,4.4,4.4,53,0.00,,---,0.00,VWS V14.00,2013-06-04 01:27:00,
2013-06-03 20:32:00,69.6,52.3,29.76,North,0,3.0,3.0,54,0.00,,---,0.00,VWS V14.00,2013-06-04 01:32:00,
2013-06-03 20:38:00,69.3,52.4,29.76,North,0,2.1,2.1,55,0.00,,---,0.00,VWS V14.00,2013-06-04 01:38:00,
2013-06-03 20:43:00,68.9,52.1,29.76,North,0,2.4,2.4,55,0.00,,---,0.00,VWS V14.00,2013-06-04 01:43:00,
2013-06-03 20:48:00,68.7,52.4,29.76,North,0,2.1,2.1,56,0.00,,---,0.00,VWS V14.00,2013-06-04 01:48:00,
2013-06-03 20:53:00,68.4,52.5,29.76,North,0,2.4,2.4,57,0.00,,---,0.00,VWS V14.00,2013-06-04 01:53:00,
2013-06-03 21:00:00,68.0,53.2,29.76,North,0,2.1,2.1,59,0.00,,---,0.00,VWS V14.00,2013-06-04 02:00:00,
2013-06-03 21:05:00,67.8,53.4,29.76,North,0,3.0,3.0,60,0.00,,---,0.00,VWS V14.00,2013-06-04 02:05:00,
2013-06-03 21:10:00,67.6,54.2,29.76,North,0,1.0,0.0,62,0.00,,---,0.00,VWS V14.00,2013-06-04 02:10:00,
2013-06-03 21:16:00,67.3,53.8,29.76,North,0,2.7,2.7,62,0.00,,---,0.00,VWS V14.00,2013-06-04 02:16:00,
2013-06-03 21:21:00,67.1,54.1,29.76,North,0,2.4,2.4,63,0.00,,---,0.00,VWS V14.00,2013-06-04 02:21:00,
2013-06-03 21:27:00,66.7,54.2,29.76,North,0,2.7,2.7,64,0.00,,---,0.00,VWS V14.00,2013-06-04 02:27:00,
2013-06-03 21:32:00,66.6,54.4,29.76,North,0,2.7,2.7,65,0.00,,---,0.00,VWS V14.00,2013-06-04 02:32:00,
2013-06-03 21:38:00,66.4,54.7,29.76,North,0,2.4,2.4,66,0.00,,---,0.00,VWS V14.00,2013-06-04 02:38:00,
2013-06-03 21:43:00,66.0,54.8,29.76,North,0,2.4,2.4,67,0.00,,---,0.00,VWS V14.00,2013-06-04 02:43:00,
2013-06-03 21:49:00,65.8,55.0,29.76,North,0,1.0,0.0,68,0.00,,---,0.00,VWS V14.00,2013-06-04 02:49:00,
2013-06-03 21:56:00,65.5,55.0,29.76,North,0,2.1,2.1,69,0.00,,---,0.00,VWS V14.00,2013-06-04 02:56:00,
2013-06-03 22:01:00,65.3,54.9,29.79,North,0,1.0,1.0,69,0.00,,---,0.00,VWS V14.00,2013-06-04 03:01:00,
2013-06-03 22:06:00,65.1,54.7,29.79,North,0,2.1,2.1,69,0.00,,---,0.00,VWS V14.00,2013-06-04 03:06:00,
2013-06-03 22:12:00,65.1,55.1,29.79,North,0,1.0,0.0,70,0.00,,---,0.00,VWS V14.00,2013-06-04 03:12:00,
2013-06-03 22:17:00,64.9,54.9,29.79,North,0,2.1,2.1,70,0.00,,---,0.00,VWS V14.00,2013-06-04 03:17:00,
2013-06-03 22:23:00,64.8,55.2,29.79,North,0,1.0,1.0,71,0.00,,---,0.00,VWS V14.00,2013-06-04 03:23:00,
2013-06-03 22:29:00,64.6,55.0,29.79,North,0,1.0,0.0,71,0.00,,---,0.00,VWS V14.00,2013-06-04 03:29:00,
2013-06-03 22:34:00,64.4,54.8,29.79,North,0,1.0,0.0,71,0.00,,---,0.00,VWS V14.00,2013-06-04 03:34:00,
2013-06-03 22:39:00,64.4,55.2,29.79,North,0,2.7,2.7,72,0.00,,---,0.00,VWS V14.00,2013-06-04 03:39:00,
2013-06-03 22:45:00,64.4,55.2,29.79,North,0,2.7,2.7,72,0.00,,---,0.00,VWS V14.00,2013-06-04 03:45:00,
2013-06-03 22:50:00,64.4,55.2,29.79,North,0,2.4,2.5,72,0.00,,---,0.00,VWS V14.00,2013-06-04 03:50:00,
2013-06-03 22:55:00,64.2,55.4,29.79,North,0,2.7,2.7,73,0.00,,---,0.00,VWS V14.00,2013-06-04 03:55:00,
2013-06-03 23:01:00,64.2,55.4,29.79,North,0,2.7,2.7,73,0.00,,---,0.00,VWS V14.00,2013-06-04 04:01:00,
2013-06-03 23:02:00,64.0,55.2,29.79,North,0,3.8,3.8,73,0.00,,---,0.00,VWS V14.00,2013-06-04 04:02:00,
2013-06-03 23:04:00,64.0,55.2,29.79,North,0,3.0,3.0,73,0.00,,---,0.00,VWS V14.00,2013-06-04 04:04:00,
2013-06-03 23:05:00,64.0,55.2,29.79,North,0,2.4,2.4,73,0.00,,---,0.00,VWS V14.00,2013-06-04 04:05:00,
2013-06-03 23:09:00,64.0,55.2,29.79,North,0,1.0,1.0,73,0.00,,---,0.00,VWS V14.00,2013-06-04 04:09:00,
2013-06-03 23:15:00,63.9,55.0,29.79,North,0,1.0,1.3,73,0.00,,---,0.00,VWS V14.00,2013-06-04 04:15:00,
2013-06-03 23:20:00,63.9,55.0,29.79,North,0,2.7,2.7,73,0.00,,---,0.00,VWS V14.00,2013-06-04 04:20:00,
2013-06-03 23:27:00,63.9,55.4,29.79,North,0,1.0,0.0,74,0.00,,---,0.00,VWS V14.00,2013-06-04 04:27:00,
2013-06-03 23:32:00,63.7,55.2,29.79,North,0,1.0,1.1,74,0.00,,---,0.00,VWS V14.00,2013-06-04 04:32:00,
2013-06-03 23:37:00,63.5,55.1,29.79,North,0,1.0,0.0,74,0.00,,---,0.00,VWS V14.00,2013-06-04 04:37:00,
2013-06-03 23:42:00,63.3,54.9,29.79,North,0,2.1,2.1,74,0.00,,---,0.00,VWS V14.00,2013-06-04 04:42:00,
2013-06-03 23:48:00,63.0,54.9,29.79,North,0,1.0,0.0,75,0.00,,---,0.00,VWS V14.00,2013-06-04 04:48:00,
2013-06-03 23:54:00,63.0,54.9,29.79,North,0,1.0,0.0,75,0.00,,---,0.00,VWS V14.00,2013-06-04 04:54:00,